| time (UTC) | temp F | wind direction | speed MPH | gust MPH | rain 1hr in | rain 24hr in | rain mn in | humidity % | barometer mb |
| 20260505051558 | 44 | 268 | 0.0 | 3.0 | 0.01 | 0.12 | 0.12 | 88 | 1013.0 |
| 20260505041614 | 44 | 255 | 0.0 | 4.0 | 0.06 | 0.11 | 0.11 | 88 | 1013.5 |
| 20260505040100 | 45 | 273 | 3.0 | 7.0 | 0.08 | 0.11 | 0.11 | 86 | 1013.7 |
| 20260505034610 | 45 | 254 | 1.0 | 6.0 | 0.06 | 0.09 | 0.09 | 87 | 1013.4 |
| 20260505033102 | 45 | 242 | 6.0 | 14.0 | 0.04 | 0.07 | 0.07 | 85 | 1013.6 |
| 20260505031607 | 47 | 305 | 2.0 | 17.0 | 0.02 | 0.05 | 0.05 | 84 | 1013.4 |
| 20260505030100 | 48 | 294 | 3.0 | 13.0 | 0.00 | 0.03 | 0.03 | 78 | 1013.1 |
| 20260505024602 | 49 | 286 | 3.0 | 9.0 | 0.00 | 0.03 | 0.03 | 75 | 1012.7 |
| 20260505023104 | 50 | 349 | 3.0 | 10.0 | 0.00 | 0.03 | 0.03 | 75 | 1012.4 |
| 20260505021601 | 50 | 0 | 0.0 | 0.0 | 0.00 | 0.03 | 0.03 | 78 | 1011.8 |
| 20260505020058 | 50 | 0 | 0.0 | 0.0 | 0.00 | 0.03 | 0.03 | 78 | 1011.7 |
| 20260505014558 | 50 | 0 | 0.0 | 0.0 | 0.01 | 0.03 | 0.03 | 79 | 1011.7 |
| 20260505013103 | 51 | 0 | 1.0 | 6.0 | 0.01 | 0.03 | 0.03 | 73 | 1011.3 |
| 20260505011600 | 50 | 0 | 0.0 | 3.0 | 0.03 | 0.03 | 0.03 | 77 | 1011.6 |
| 20260505010059 | 51 | 0 | 0.0 | 1.0 | 0.03 | 0.03 | 0.03 | 75 | 1011.4 |
| 20260505004559 | 52 | 0 | 0.0 | 1.0 | 0.02 | 0.02 | 0.02 | 80 | 1011.4 |
| 20260505003059 | 52 | 0 | 0.0 | 2.0 | 0.02 | 0.02 | 0.02 | 74 | 1011.9 |
| 20260505001601 | 54 | 116 | 2.0 | 15.0 | 0.00 | 0.00 | 0.00 | 61 | 1012.1 |
| 20260505000109 | 57 | 292 | 4.0 | 10.0 | 0.00 | 0.00 | 0.00 | 45 | 1011.4 |
| 20260504234639 | 58 | 323 | 4.0 | 10.0 | 0.00 | 0.00 | 0.00 | 46 | 1011.2 |
| 20260504233104 | 58 | 342 | 5.0 | 11.0 | 0.00 | 0.00 | 0.00 | 42 | 1010.8 |
| 20260504231605 | 59 | 350 | 4.0 | 13.0 | 0.00 | 0.00 | 0.00 | 42 | 1010.8 |
| 20260504230131 | 61 | 323 | 5.0 | 14.0 | 0.00 | 0.00 | 0.00 | 40 | 1010.7 |
| 20260504224558 | 61 | 353 | 6.0 | 14.0 | 0.00 | 0.00 | 0.00 | 37 | 1010.3 |
| 20260504223058 | 60 | 338 | 6.0 | 14.0 | 0.00 | 0.00 | 0.00 | 44 | 1010.6 |
| 20260504221610 | 61 | 7 | 7.0 | 15.0 | 0.00 | 0.00 | 0.00 | 38 | 1010.3 |
| 20260504220104 | 62 | 258 | 5.0 | 16.0 | 0.00 | 0.00 | 0.00 | 34 | 1010.2 |
| 20260504214610 | 67 | 284 | 3.0 | 8.0 | 0.00 | 0.00 | 0.00 | 26 | 1009.7 |
| 20260504213101 | 70 | 107 | 3.0 | 8.0 | 0.00 | 0.00 | 0.00 | 25 | 1009.2 |
| 20260504211603 | 71 | 85 | 2.0 | 9.0 | 0.00 | 0.00 | 0.00 | 24 | 1009.3 |
| 20260504210111 | 71 | 247 | 3.0 | 12.0 | 0.00 | 0.00 | 0.00 | 25 | 1009.6 |
| 20260504204603 | 70 | 136 | 2.0 | 9.0 | 0.00 | 0.00 | 0.00 | 26 | 1010.0 |
| 20260504203110 | 68 | 95 | 4.0 | 12.0 | 0.00 | 0.00 | 0.00 | 28 | 1010.2 |
| 20260504201602 | 65 | 55 | 3.0 | 11.0 | 0.00 | 0.00 | 0.00 | 31 | 1010.6 |
| 20260504200110 | 63 | 243 | 4.0 | 9.0 | 0.00 | 0.00 | 0.00 | 33 | 1011.1 |
| 20260504194609 | 62 | 14 | 2.0 | 10.0 | 0.00 | 0.00 | 0.00 | 34 | 1010.6 |
| 20260504193100 | 62 | 47 | 2.0 | 6.0 | 0.00 | 0.00 | 0.00 | 34 | 1010.5 |
| 20260504191557 | 62 | 253 | 2.0 | 11.0 | 0.00 | 0.00 | 0.00 | 35 | 1011.2 |
| 20260504190125 | 63 | 130 | 1.0 | 5.0 | 0.00 | 0.00 | 0.00 | 32 | 1011.1 |
| 20260504184600 | 65 | 253 | 2.0 | 5.0 | 0.00 | 0.00 | 0.00 | 26 | 1010.2 |
| 20260504183058 | 67 | 112 | 1.0 | 6.0 | 0.00 | 0.00 | 0.00 | 24 | 1010.0 |
| 20260504181603 | 68 | 45 | 2.0 | 5.0 | 0.00 | 0.00 | 0.00 | 24 | 1009.8 |
| 20260504180150 | 69 | 0 | 1.0 | 11.0 | 0.00 | 0.00 | 0.00 | 22 | 1009.8 |
| 20260504174556 | 70 | 290 | 4.0 | 10.0 | 0.00 | 0.00 | 0.00 | 17 | 1009.9 |
| 20260504173118 | 70 | 95 | 4.0 | 10.0 | 0.00 | 0.00 | 0.00 | 20 | 1010.4 |
| 20260504171557 | 69 | 5 | 5.0 | 15.0 | 0.00 | 0.00 | 0.00 | 20 | 1010.6 |
| 20260504140124 | 60 | 222 | 6.0 | 11.0 | 0.00 | 0.00 | 0.00 | 24 | 1011.6 |
| 20260504120115 | 55 | 265 | 6.0 | 18.0 | 0.00 | 0.00 | 0.00 | 27 | 1010.9 |
| 20260504110108 | 54 | 224 | 4.0 | 11.0 | 0.00 | 0.00 | 0.00 | 28 | 1011.5 |
| 20260504090110 | 49 | 0 | 0.0 | 2.0 | 0.00 | 0.00 | 0.00 | 34 | 1012.1 |
| 20260504081558 | 51 | 243 | 0.0 | 4.0 | 0.00 | 0.00 | 0.00 | 34 | 1012.4 |